Theta_e
342 342 342 341 340 341 343 344 339 335 335 335 337 338 334 331 325 323 324 327 329 334 337 336 342 346 350 352 352 351 350 351 351 351 352 352 351 349 346 346 346 347 346 346 346 346 347 347 348 350 351 350 351 353 352 353 354 355 355 356 357 357 357 355 355 354 354 355 354 355 356 358 360 362
342 340 338 338 338 340 341 342 338 336 337 336 335 335 334 334 326 326 323 324 331 332 337 337 337 349 349 352 352 351 350 352 353 352 351 352 353 349 345 345 345 346 345 344 344 344 344 345 345 345 345 347 348 350 350 350 350 351 352 353 354 354 353 351 352 353 353 353 354 353 354 355 356 357
341 338 335 338 339 339 338 340 342 340 339 337 338 337 334 334 331 327 327 323 328 335 332 336 339 339 351 352 351 353 351 351 352 351 352 353 352 350 348 343 343 343 343 343 342 341 340 342 343 342 342 343 345 347 347 348 347 348 349 350 351 350 349 349 349 350 351 352 352 351 351 352 353 354
341 338 335 336 337 338 337 336 335 334 335 335 338 335 333 333 333 331 326 324 325 333 334 335 338 341 341 347 353 352 352 352 351 352 351 351 352 352 352 346 342 341 341 341 341 339 338 340 341 341 342 343 344 346 345 344 345 346 347 347 348 348 347 345 346 348 349 349 349 349 350 350 351 352
339 338 336 335 336 338 334 333 331 330 329 330 331 332 333 334 335 332 328 326 326 331 335 335 336 339 341 340 348 348 348 348 349 349 349 350 352 351 352 353 345 341 339 339 339 339 338 339 339 340 341 342 343 345 345 344 343 344 343 343 344 345 345 343 343 345 346 347 347 348 348 348 348 349
337 337 335 334 335 337 333 331 329 328 328 328 327 327 327 328 329 331 331 329 328 327 332 333 338 339 342 338 341 342 345 344 346 346 346 349 351 349 349 351 354 343 340 337 336 337 337 338 338 338 339 340 341 341 342 341 341 341 340 340 340 340 339 339 340 342 343 344 345 346 346 346 346 347
337 335 334 332 334 334 331 331 329 329 328 327 326 325 326 326 327 329 330 327 325 326 328 333 334 336 338 338 339 342 342 344 347 343 344 346 348 348 349 352 354 346 339 337 336 336 336 337 337 337 338 337 337 337 337 337 338 338 337 337 338 338 337 337 338 340 341 342 343 345 344 344 345 345
334 333 332 333 333 333 331 330 329 329 327 326 325 324 325 326 326 326 328 329 327 327 326 331 333 335 335 337 340 342 343 341 342 345 347 349 349 348 350 352 353 349 340 338 336 336 335 335 335 335 335 334 334 334 334 334 335 334 334 334 334 334 334 333 334 337 337 338 340 342 343 343 343 340
334 333 332 333 334 333 330 329 328 328 326 325 324 324 324 324 324 324 324 325 328 327 326 328 333 335 336 338 339 341 340 341 342 344 344 349 351 350 351 353 355 348 338 338 336 335 335 335 335 335 334 334 333 332 332 331 332 332 331 331 331 331 332 331 330 332 333 333 335 334 336 339 340 340
334 332 332 334 334 332 330 328 329 329 327 326 324 323 323 323 323 322 322 322 323 325 327 328 329 333 334 335 337 340 340 339 339 341 345 350 351 348 348 351 354 355 353 347 344 337 336 335 334 334 334 334 332 331 330 329 328 328 327 325 325 328 329 329 330 330 329 330 332 333 334 335 336 337
332 332 332 333 333 333 332 330 328 328 327 326 325 324 323 323 323 322 321 322 321 322 325 328 330 331 334 335 333 338 341 340 340 342 341 338 341 343 341 342 350 353 356 351 345 345 342 340 338 333 332 333 332 332 330 328 326 325 323 322 322 323 323 324 327 328 328 328 329 328 328 330 335 336
331 332 332 330 331 333 335 332 329 329 327 327 325 325 324 323 322 321 321 320 320 320 323 326 328 330 331 333 335 338 338 336 340 342 339 335 337 340 344 346 347 352 353 352 352 345 342 340 337 333 332 332 332 331 331 330 329 325 323 322 324 324 322 322 323 324 324 324 324 324 325 325 329 332
333 332 333 331 330 338 332 323 320 321 321 325 324 325 325 323 322 320 320 319 319 320 322 325 328 329 330 331 332 332 333 334 334 340 340 337 338 341 343 346 350 352 351 351 351 352 351 348 347 343 340 338 335 333 333 335 333 329 323 323 325 326 324 322 322 323 323 323 322 322 322 324 326 329
330 332 333 331 332 327 324 323 320 316 315 315 321 325 325 323 321 320 319 318 319 319 320 323 326 326 327 329 331 331 332 337 339 338 340 337 339 340 341 343 347 353 352 349 348 351 355 352 351 348 345 345 340 339 336 337 338 333 327 326 325 326 326 323 322 322 322 321 321 320 319 321 324 325
330 333 335 333 331 330 330 333 327 321 319 319 316 315 315 316 320 318 318 318 320 320 320 322 325 326 327 329 332 332 334 335 336 337 338 339 339 337 334 331 340 351 351 349 347 348 354 354 351 352 351 350 348 343 343 337 336 333 330 328 327 327 326 326 325 324 321 320 319 319 319 319 321 323
332 333 332 333 334 333 331 333 332 330 326 321 319 316 315 315 315 315 319 319 319 319 319 320 322 324 326 328 331 332 333 333 336 338 339 339 337 336 334 334 335 345 352 349 346 345 351 352 351 350 352 353 353 350 342 338 336 334 332 330 329 329 328 328 328 328 326 323 322 323 322 322 322 322
333 333 332 331 332 332 332 334 334 333 333 324 320 318 317 318 318 319 319 317 322 322 321 321 322 324 326 327 329 333 334 335 333 338 338 338 338 338 337 337 338 344 352 349 345 343 347 350 347 348 352 354 355 354 342 338 337 334 333 332 332 331 329 328 328 328 327 326 324 323 323 322 321 321
332 332 332 331 330 331 332 334 334 333 332 329 328 326 324 324 324 319 318 317 316 319 323 323 322 325 327 327 331 335 336 335 332 335 337 338 336 336 336 340 342 346 354 348 345 342 344 348 348 346 349 353 355 355 347 338 336 335 333 332 331 331 329 328 328 327 326 325 324 322 320 319 319 319
333 331 331 330 330 331 330 333 332 332 329 326 325 324 323 323 324 325 325 325 325 325 324 324 324 324 325 326 328 333 336 336 338 337 337 340 339 339 342 341 342 341 347 347 343 337 343 348 345 345 347 351 353 355 344 337 336 334 332 331 331 330 329 328 327 325 325 324 323 321 319 318 317 316
331 332 331 330 329 329 331 327 321 321 323 324 323 322 322 322 323 324 320 320 320 322 323 323 323 324 325 321 325 326 327 330 338 340 343 344 338 336 332 331 334 336 344 344 339 337 341 346 343 343 348 350 350 353 354 338 333 333 331 332 331 329 327 326 326 325 324 324 323 321 318 315 314 313
333 334 334 332 331 332 333 326 321 316 314 323 321 320 320 321 322 322 325 322 319 318 316 314 315 315 316 316 316 315 316 321 328 338 335 333 334 332 330 331 333 336 342 344 340 338 339 345 344 342 346 348 347 350 351 353 334 331 330 330 329 326 325 324 323 323 323 323 322 321 320 315 313 313
333 333 333 333 332 333 334 324 315 313 316 320 319 320 320 320 320 322 324 325 325 320 318 318 318 319 319 319 318 318 317 317 320 332 331 335 336 331 332 331 334 337 339 342 348 339 340 345 346 343 345 345 346 347 350 352 346 331 327 327 326 323 323 322 320 322 322 322 322 320 318 314 312 317
332 331 332 332 329 328 326 310 310 310 311 317 318 319 320 319 320 322 323 322 321 322 324 326 327 326 324 329 328 326 319 319 322 332 336 336 335 332 332 334 335 333 335 341 350 341 342 343 345 343 338 338 344 346 349 348 344 338 337 332 330 322 323 321 319 318 319 320 320 319 315 312 313 323
327 328 330 329 320 315 312 308 306 305 306 312 316 319 319 320 320 323 321 320 321 323 325 324 326 326 327 329 334 332 330 327 329 332 336 338 336 334 333 334 334 329 331 340 348 343 344 345 342 345 341 335 334 341 342 345 344 341 341 337 336 322 322 320 316 314 315 316 316 316 314 310 314 330
323 325 327 328 323 313 310 307 305 304 304 305 313 319 322 323 322 313 317 322 319 324 324 325 325 325 326 327 329 334 335 333 333 333 334 338 338 336 335 333 333 334 336 341 343 346 342 343 342 344 341 342 345 343 343 345 346 343 344 342 339 329 328 327 326 322 313 311 311 311 310 310 311 328
324 327 327 327 325 315 309 306 304 302 303 305 315 323 311 309 310 317 322 325 325 324 324 323 323 323 324 324 326 327 332 336 336 335 335 335 337 338 338 336 334 333 335 342 334 349 343 339 342 341 342 336 337 339 336 340 346 345 346 344 342 334 333 332 332 330 323 321 319 312 314 310 312 315
324 325 326 328 321 311 305 303 303 303 303 308 319 307 307 310 312 316 326 325 324 323 322 322 321 322 322 322 323 325 327 331 337 337 337 337 336 337 339 340 340 340 341 347 343 346 343 336 341 339 340 338 337 337 335 335 339 343 342 342 342 337 337 338 336 334 331 329 328 312 309 308 310 314
324 326 328 325 310 305 301 303 304 303 307 318 306 306 310 312 316 326 325 323 323 322 321 320 320 320 322 322 322 324 326 329 332 338 338 338 338 337 337 339 340 341 343 351 349 348 347 343 337 339 343 340 337 333 330 337 340 339 339 343 344 341 340 340 339 337 335 336 330 322 324 320 317 317
327 320 309 305 305 306 305 305 305 311 317 312 308 309 312 316 324 324 322 322 321 320 319 320 320 321 322 323 324 325 326 330 333 336 339 339 339 339 338 338 339 340 342 348 349 348 348 347 339 341 341 341 338 338 339 336 336 337 338 338 340 342 341 342 342 339 338 338 333 331 332 333 327 324
312 310 309 310 311 313 316 322 327 327 326 315 314 316 318 324 322 321 320 319 319 319 319 320 320 321 322 323 323 324 324 324 332 336 337 337 336 337 336 336 336 340 343 347 347 345 346 347 342 339 338 338 339 336 335 334 334 337 338 336 339 341 343 343 342 340 338 335 334 334 336 338 335 330
317 317 316 317 313 313 314 319 320 320 321 325 325 325 324 322 321 319 318 318 318 319 319 319 320 321 323 324 323 321 321 321 320 328 336 337 337 336 336 336 335 336 344 344 344 342 344 344 341 342 338 335 337 338 337 336 334 335 338 340 339 335 340 343 342 341 338 337 337 336 337 337 336 334
314 315 313 318 329 332 328 323 326 327 326 328 323 323 322 321 320 320 319 318 317 318 319 320 321 321 322 321 321 320 320 320 320 320 329 336 334 335 335 334 334 336 338 340 341 345 345 344 340 341 342 338 335 336 339 337 336 339 339 338 338 342 342 341 341 341 340 338 336 335 336 338 335 335
311 316 321 326 321 321 320 320 320 321 322 320 320 320 319 318 318 316 315 313 314 317 318 318 318 319 320 320 321 321 319 319 320 320 319 322 333 335 334 332 333 333 334 334 334 337 342 343 345 343 342 342 342 340 337 334 335 336 335 335 337 338 341 341 340 340 340 338 336 336 336 337 336 336
307 316 323 320 318 318 318 316 317 315 316 315 315 316 314 316 316 315 315 314 314 316 316 317 317 318 319 319 319 320 320 319 320 319 317 318 320 327 331 330 331 332 334 333 333 335 337 338 337 336 334 331 331 331 334 336 333 335 336 336 335 335 336 340 339 341 339 338 336 334 334 335 337 338
319 320 318 317 316 316 315 315 314 315 315 314 313 313 314 314 314 314 313 312 314 316 316 316 317 318 318 318 318 318 319 319 320 320 320 318 318 317 316 316 318 323 327 330 332 335 334 333 332 330 330 330 328 328 326 326 334 334 334 334 334 335 336 340 339 339 339 338 337 334 333 334 335 338
320 319 317 314 314 314 313 312 313 312 312 313 312 312 312 311 312 312 311 311 316 316 316 315 315 316 317 317 317 318 318 318 320 319 319 318 317 316 316 316 316 317 318 318 320 326 332 332 331 328 327 327 326 325 325 322 323 335 333 334 337 336 337 339 338 338 337 336 338 336 333 333 334 337
315 315 315 313 313 312 311 311 311 311 310 310 311 310 311 310 309 310 311 311 314 315 315 315 315 316 316 316 317 316 317 318 319 318 318 319 317 317 316 317 317 316 315 316 318 319 321 320 321 325 327 325 324 322 323 330 319 315 328 333 332 334 335 336 335 334 334 333 332 333 333 333 334 337
314 313 312 311 311 310 310 309 309 309 308 308 309 308 308 309 307 308 310 309 310 311 313 313 313 315 315 314 315 316 316 317 318 318 318 318 318 316 315 315 315 316 316 317 318 318 319 319 318 317 318 323 324 320 320 324 324 320 308 326 333 332 334 334 332 330 330 332 330 331 331 331 331 332
313 312 311 310 309 309 307 307 307 306 306 306 307 306 306 306 304 305 306 306 307 309 310 311 311 312 314 314 314 315 315 315 315 316 318 318 318 318 317 316 315 315 316 315 317 319 320 319 319 318 317 315 318 321 321 318 318 322 314 305 325 333 331 332 331 330 330 329 330 330 331 331 329 326
312 312 311 310 309 308 307 307 306 305 304 305 305 306 306 306 304 303 304 303 305 307 307 308 309 308 312 314 313 314 314 314 314 315 316 318 319 319 319 319 316 316 315 315 316 316 317 319 321 321 318 317 319 323 325 323 324 324 323 317 303 315 330 332 331 331 329 330 329 327 326 328 328 331
311 309 309 310 309 309 308 307 306 306 305 305 305 304 307 307 304 303 303 303 305 304 305 305 306 307 308 311 311 313 312 312 312 314 316 316 317 318 319 318 318 318 315 314 315 314 315 319 324 322 324 322 323 323 321 318 317 319 321 322 311 305 309 318 330 330 328 330 329 328 326 326 326 327
310 308 308 308 307 308 308 307 306 305 305 305 303 303 304 305 304 302 303 303 303 304 303 304 305 305 305 307 309 310 312 311 310 311 313 315 316 316 316 317 318 319 318 317 318 318 321 324 325 325 325 323 320 317 316 317 317 318 320 323 324 312 308 308 309 313 321 325 327 324 324 325 327 325
308 307 306 306 307 307 306 306 306 305 304 304 304 304 302 301 302 301 300 300 301 301 301 302 303 304 305 306 307 307 309 312 311 311 311 312 314 314 313 313 316 318 320 320 322 322 323 323 323 323 321 321 320 320 316 318 319 319 319 320 322 325 323 314 310 310 311 311 313 318 325 326 322 318
307 305 305 306 305 306 305 304 304 304 304 303 302 302 300 299 300 300 300 299 299 299 301 301 302 303 304 305 306 306 306 308 311 310 310 311 311 313 313 311 312 315 318 319 320 320 323 324 324 325 320 318 320 319 318 319 318 319 320 321 322 322 322 324 325 317 316 313 310 312 313 313 315 317
307 306 305 304 304 304 304 304 304 303 301 301 300 299 299 298 298 298 299 299 298 299 300 300 301 302 303 305 305 304 305 305 308 309 310 310 310 310 312 310 309 310 312 316 320 319 321 322 322 323 323 323 322 321 322 321 319 319 320 320 319 321 322 323 320 318 318 317 311 308 310 313 315 314
Wind_Speed
4 3 4 3 4 5 4 4 4 6 7 7 6 6 7 8 10 10 10 10 9 9 8 7 6 10 10 10 9 8 8 10 12 9 10 11 12 19 27 27 24 23 24 23 23 23 23 23 23 23 24 24 23 23 22 21 20 19 19 18 18 17 17 16 15 15 15 15 16 15 15 15 16 17
3 3 4 4 4 4 4 2 4 6 5 6 7 8 8 7 10 10 12 13 9 10 8 9 6 5 9 10 9 8 9 12 13 9 10 12 14 18 19 22 22 23 24 24 23 23 23 23 23 23 23 23 23 23 22 21 20 19 19 19 18 18 17 16 16 16 16 16 16 16 15 15 15 15
3 3 4 4 4 4 5 4 3 5 5 6 6 6 7 8 10 13 11 13 11 7 11 9 10 8 5 6 7 8 9 11 12 9 8 9 15 19 15 20 21 22 23 23 23 23 23 23 23 22 22 22 22 22 22 22 21 20 20 19 19 18 17 16 17 17 17 17 16 16 16 16 16 16
3 4 4 4 4 4 4 4 5 6 6 7 6 6 7 8 10 10 11 15 19 10 9 9 9 10 10 7 7 8 9 8 10 8 8 10 14 11 10 15 20 22 23 23 23 23 23 23 23 22 21 22 22 22 22 22 21 21 20 20 19 18 17 17 17 17 17 17 16 16 16 16 16 16
4 3 4 4 4 3 4 4 5 6 7 7 7 8 8 9 8 9 12 14 15 14 9 10 11 11 10 9 6 9 9 9 8 9 9 8 7 8 11 9 16 21 22 23 23 23 23 23 23 22 22 22 22 22 22 22 21 21 20 20 19 18 18 18 17 17 17 17 16 16 16 16 15 15
3 3 4 4 4 3 3 5 6 6 7 8 9 9 9 9 10 11 13 13 13 16 11 9 9 10 10 12 9 9 8 9 8 9 9 8 8 9 11 12 9 19 20 22 23 23 23 23 23 22 22 22 22 22 22 22 21 21 20 19 19 18 18 17 17 16 16 17 17 17 16 15 15 15
4 4 4 5 4 3 3 4 4 5 5 7 8 10 9 10 11 11 11 11 14 16 16 10 10 10 10 11 11 11 11 8 9 11 9 9 9 10 12 12 10 14 20 21 21 22 22 22 22 22 22 21 21 21 21 21 21 20 20 19 19 18 17 17 16 17 17 17 17 17 16 15 15 15
5 5 5 4 4 3 3 3 4 3 4 5 6 9 9 10 12 11 11 12 12 13 16 12 10 9 10 11 12 12 11 12 10 9 11 12 11 12 13 14 11 11 18 21 22 22 22 21 21 21 21 21 20 21 21 21 21 20 20 19 18 17 17 16 17 17 17 17 17 17 16 16 15 15
5 5 5 4 3 3 3 3 4 3 5 6 7 7 8 9 10 10 10 12 13 14 14 14 9 9 10 10 11 10 10 10 10 10 10 10 11 13 13 11 10 12 15 19 20 20 20 21 21 21 21 21 21 20 20 20 20 20 19 18 17 16 16 16 17 17 17 17 16 16 16 15 15 15
5 5 6 4 3 3 3 3 4 3 6 6 7 9 9 9 10 11 12 11 12 14 14 13 13 10 11 10 10 10 11 10 9 8 9 8 6 5 8 10 9 8 6 6 8 12 14 17 20 20 20 20 20 20 20 20 20 20 19 18 17 16 16 17 17 17 17 16 16 16 15 15 15 14
7 6 5 4 3 2 3 3 4 5 6 5 8 9 10 10 10 11 11 10 11 13 14 12 12 11 9 10 12 10 10 11 10 8 5 3 6 6 10 11 11 8 8 11 15 13 13 14 13 17 20 20 20 20 20 19 20 18 18 17 17 17 17 18 17 17 17 16 16 15 15 15 15 14
8 7 6 7 5 3 2 2 5 5 5 5 7 8 9 9 11 11 11 11 10 12 13 12 11 9 10 9 10 10 9 10 10 7 7 9 8 9 10 12 12 8 8 8 8 10 12 12 15 17 17 19 19 19 18 19 19 20 18 18 17 18 18 18 17 17 16 16 15 15 15 15 14 14
7 8 7 6 6 2 4 8 8 7 5 4 7 9 7 10 10 12 11 10 10 11 12 12 9 10 10 10 10 10 10 12 12 7 8 9 9 8 8 10 10 9 9 8 9 9 9 9 8 8 8 11 16 16 18 15 19 19 18 18 18 18 19 18 17 17 16 15 15 15 15 15 14 14
7 7 3 8 15 9 8 10 12 9 9 9 8 9 9 10 11 12 13 12 10 10 11 12 10 11 11 9 9 11 11 11 9 9 9 10 10 9 8 6 8 9 9 8 9 9 8 9 8 9 10 10 12 11 10 11 13 16 18 18 18 19 19 18 17 17 16 16 15 15 15 14 14 14
6 6 4 5 6 11 10 9 7 7 9 10 12 13 13 12 11 12 15 11 12 11 11 11 11 11 12 12 10 10 10 9 11 10 10 10 9 9 8 10 9 8 9 10 9 9 8 9 10 10 10 10 9 11 12 19 19 18 19 20 20 20 19 19 18 17 17 16 16 15 15 15 15 15
6 7 8 7 5 4 8 8 8 9 10 10 10 11 11 13 15 16 13 13 12 13 12 12 12 12 12 12 10 11 10 11 12 10 10 10 10 10 11 11 11 6 11 10 10 10 8 9 10 10 10 10 9 12 15 19 20 19 18 20 21 20 20 20 19 18 18 17 16 16 15 15 15 15
6 7 8 8 6 5 9 7 7 7 7 9 12 12 13 14 15 15 16 15 13 12 12 12 13 11 11 13 13 11 10 9 12 10 10 11 10 10 11 11 10 8 10 10 10 10 9 10 10 11 10 9 9 11 15 19 20 21 20 20 20 20 20 20 20 19 18 17 16 16 16 16 15 15
7 7 8 8 8 7 7 7 7 7 6 8 9 10 11 11 14 15 14 16 16 14 11 11 12 13 12 13 13 12 10 10 12 12 10 10 11 11 13 11 10 6 9 12 9 10 9 9 10 12 10 9 9 9 13 19 20 21 21 21 21 21 21 20 19 18 17 16 16 16 16 15 15 16
5 7 7 7 9 9 8 7 8 6 5 6 8 10 11 12 12 12 12 12 11 12 11 12 14 15 14 14 16 15 13 14 11 11 12 10 10 10 5 3 6 4 4 5 6 12 8 8 10 11 10 9 10 9 11 17 20 20 21 21 21 22 20 18 17 16 16 15 16 16 16 16 15 15
7 7 8 7 7 9 9 8 9 2 3 6 8 9 10 12 12 12 11 15 13 12 13 13 13 16 18 19 17 17 14 13 12 11 7 4 5 7 3 7 7 9 7 8 8 9 9 8 10 10 9 8 10 10 10 12 18 20 20 20 21 20 18 17 16 15 15 15 15 15 15 15 15 15
6 6 6 7 7 7 6 9 6 5 4 6 7 7 9 10 11 12 12 13 15 16 19 22 24 25 25 26 27 25 27 21 16 9 8 9 5 8 8 9 9 9 7 9 12 12 10 8 9 9 8 10 10 9 10 9 13 19 20 19 18 16 16 15 15 15 14 14 15 15 15 14 13 12
5 6 12 11 7 6 6 5 7 6 6 5 6 7 8 9 11 13 12 12 13 18 18 20 21 22 22 25 27 26 25 23 17 13 13 9 7 11 11 10 9 8 8 9 13 11 11 6 8 8 6 7 8 8 7 7 8 14 14 16 15 15 15 15 14 14 13 13 14 14 14 13 10 6
5 6 7 11 8 5 5 7 6 5 3 4 5 6 7 9 12 12 14 14 13 14 15 14 14 15 18 16 13 14 23 23 18 14 13 9 10 10 10 7 6 6 7 9 10 10 8 8 6 8 4 4 5 6 2 1 4 6 6 6 6 9 12 12 13 13 13 13 13 13 13 12 10 6
7 6 6 6 4 3 4 4 6 7 2 3 5 5 7 9 12 12 13 15 13 14 14 16 14 15 15 15 12 9 11 13 14 14 14 13 11 11 10 9 8 7 6 5 12 10 7 8 8 8 8 6 5 4 4 4 4 4 6 7 7 7 8 8 7 10 11 12 12 12 12 12 12 6
7 7 5 6 5 1 2 8 10 9 8 4 5 6 6 8 13 15 11 15 17 13 14 13 14 13 13 13 13 10 9 10 11 12 13 13 13 12 10 10 10 10 8 6 13 11 9 8 10 7 8 6 2 3 1 3 4 6 6 8 8 6 6 5 4 4 5 8 10 11 11 13 14 9
7 6 6 6 7 5 8 11 12 11 9 10 5 7 11 16 17 14 11 11 11 12 11 12 13 13 13 13 12 12 10 9 12 13 13 14 14 12 11 12 11 11 9 8 14 10 8 5 8 10 6 5 1 4 2 2 2 3 3 4 3 6 6 6 6 5 5 4 4 5 8 12 13 12
8 7 7 7 9 11 11 11 12 10 9 6 6 12 14 16 19 14 9 11 11 12 12 12 13 14 14 14 13 12 11 10 9 12 13 14 14 13 12 12 11 10 7 5 10 11 7 3 8 9 7 6 6 4 5 4 2 2 5 6 6 6 7 7 7 7 6 6 5 8 6 7 9 11
8 8 7 8 14 16 9 10 12 8 4 5 11 12 12 16 15 10 9 9 10 11 12 13 14 14 15 14 14 14 12 10 10 10 11 12 13 14 13 13 12 11 9 4 3 6 9 8 4 5 4 8 7 7 5 2 2 4 5 5 7 8 8 8 8 7 8 7 6 6 5 4 5 6
7 9 14 16 15 14 4 9 9 6 0 6 9 9 11 12 8 8 9 10 10 11 12 12 13 14 13 14 13 14 14 12 10 8 9 10 11 11 13 12 11 10 8 7 7 6 5 7 9 7 2 2 7 4 5 5 5 5 4 6 6 7 8 9 8 8 8 7 7 7 7 6 6 7
11 12 12 15 15 12 3 4 2 3 2 6 8 9 10 5 7 8 9 10 10 10 12 12 13 13 13 13 14 13 14 15 8 7 8 10 9 10 10 11 10 10 10 8 8 7 6 4 6 6 5 3 5 6 5 5 4 4 5 8 4 4 9 9 8 8 8 8 8 8 6 6 6 7
9 10 11 10 13 13 4 6 5 3 3 4 3 3 5 6 7 8 8 8 9 11 11 12 11 12 12 12 13 14 15 14 14 12 8 8 9 8 8 9 9 9 5 7 7 7 6 7 5 3 3 3 3 5 7 7 7 7 7 8 8 8 6 8 8 9 8 8 7 7 5 6 6 8
9 9 10 10 6 4 3 4 2 3 3 2 4 4 5 6 7 9 12 11 9 10 10 10 10 11 12 13 13 14 14 15 15 17 9 8 7 7 3 4 8 8 7 6 4 4 6 7 7 5 5 7 6 5 4 5 6 5 4 7 6 6 5 8 8 7 9 8 7 6 6 5 6 6
8 7 6 6 5 6 5 5 5 4 4 5 5 5 5 6 7 8 9 9 9 10 10 11 11 11 12 12 13 12 14 15 15 14 14 11 5 6 3 4 5 3 8 7 3 2 6 6 7 7 3 4 3 6 7 4 5 3 4 7 7 6 3 7 6 7 8 8 6 6 5 6 6 6
5 6 6 5 7 6 6 6 5 6 5 6 6 5 6 6 7 8 8 8 9 10 10 10 10 11 11 12 13 13 13 13 14 15 15 13 13 4 5 7 5 6 3 6 8 7 6 8 7 7 7 8 7 6 1 3 5 3 4 5 3 2 2 5 7 8 9 7 8 6 6 5 5 6
4 4 5 6 6 6 6 6 6 6 6 6 6 7 6 6 7 7 8 10 9 9 11 10 11 11 11 11 12 12 13 13 13 14 13 13 13 12 12 13 9 6 5 4 4 7 7 7 8 9 8 6 5 6 8 4 3 5 2 2 6 7 5 3 7 8 7 6 6 7 6 5 5 5
3 6 6 6 6 6 6 6 6 7 7 7 7 7 7 7 7 7 8 10 8 9 9 11 10 11 11 11 12 12 12 11 11 12 13 13 13 11 10 12 9 10 10 9 7 5 3 6 7 8 7 7 6 4 2 7 6 2 8 8 6 6 7 7 7 7 7 5 5 7 7 7 6 6
8 6 6 7 6 6 6 6 6 6 7 8 7 7 7 8 8 8 8 8 7 8 9 9 10 10 11 11 11 11 11 12 12 12 12 11 9 9 9 10 10 11 13 11 9 10 8 7 7 3 5 8 7 7 5 1 7 10 1 5 2 2 5 6 8 6 4 5 4 2 3 5 6 5
7 7 6 7 7 6 6 7 7 7 7 7 7 8 8 8 8 9 8 8 8 8 8 9 10 9 10 10 11 11 12 11 11 11 10 10 9 9 10 10 10 11 11 11 11 10 8 8 9 9 8 2 8 8 5 2 2 7 9 2 5 5 5 7 7 7 6 4 5 3 4 5 3 1
6 6 6 5 6 6 6 7 7 7 7 7 7 7 7 8 9 8 9 9 9 8 8 9 9 10 9 10 9 10 10 11 11 11 10 10 10 11 10 10 11 11 11 12 12 11 11 12 10 9 8 9 5 2 7 8 4 3 13 20 3 5 4 6 7 5 6 6 5 5 6 3 5 5
5 4 5 5 4 5 5 5 5 6 6 6 6 5 6 7 7 8 8 9 9 8 8 8 9 9 9 9 9 9 10 11 11 10 10 10 10 11 9 9 10 10 11 12 12 11 12 12 12 9 8 11 9 7 3 7 8 7 11 15 18 7 2 5 5 6 6 6 7 7 6 3 3 2
4 5 4 4 4 3 4 5 5 5 5 5 5 6 6 5 6 7 7 8 8 8 9 9 9 9 9 9 9 8 9 9 9 10 10 10 10 10 12 9 8 9 10 10 11 11 11 9 9 11 9 7 7 4 4 7 13 9 9 11 14 16 18 11 8 4 3 6 8 7 6 5 4 3
3 3 3 4 5 5 4 5 5 4 5 4 5 6 6 6 6 9 8 9 9 8 8 9 9 9 9 9 9 9 6 8 9 10 10 10 10 10 12 11 9 8 8 9 8 7 5 6 8 6 4 7 9 10 11 10 9 7 6 6 6 9 17 19 20 16 11 7 4 7 6 5 5 5
4 4 5 4 4 5 5 5 4 4 5 4 5 5 6 6 6 7 7 8 8 8 8 9 8 8 9 9 8 9 8 7 8 9 10 10 10 10 10 10 9 8 7 6 5 5 4 4 6 6 6 7 8 8 9 8 6 5 7 7 7 5 8 13 17 18 18 18 13 9 4 3 3 3
3 4 4 4 4 4 4 4 4 4 5 5 5 5 6 6 6 7 7 7 8 8 8 8 8 8 9 8 8 8 9 8 7 9 9 9 9 9 9 10 10 9 8 6 6 6 5 4 3 4 5 7 6 7 7 6 6 5 5 6 6 7 8 5 6 9 13 17 17 15 16 16 12 10
3 3 4 4 4 4 4 4 4 4 5 5 5 5 6 6 6 7 6 7 7 8 8 8 8 8 8 8 8 9 9 10 7 7 6 7 8 9 8 9 9 9 9 8 6 6 6 6 6 5 5 6 5 5 5 5 5 4 5 6 6 5 5 4 6 7 7 7 12 15 14 14 14 14
Wind_Direction
325 309 302 289 281 277 278 294 342 321 293 281 263 247 251 258 265 282 282 271 275 270 241 247 233 222 232 230 215 207 210 212 207 210 217 230 234 231 222 218 216 216 218 219 219 219 220 220 221 221 222 223 223 224 224 224 225 226 228 229 230 233 233 234 235 236 235 236 236 237 238 238 241 246
308 313 308 313 307 310 304 244 204 244 258 260 259 268 263 251 256 266 278 280 266 277 274 270 270 221 224 227 222 209 211 213 211 214 215 223 234 234 214 214 213 214 217 218 220 221 221 221 221 222 223 224 225 226 227 227 226 227 229 230 233 234 236 238 239 240 241 241 241 241 241 241 241 243
309 314 311 312 309 320 324 323 257 243 244 253 256 259 256 253 251 257 259 271 267 241 266 259 265 274 252 231 230 219 216 215 212 221 235 236 232 228 212 210 213 215 216 218 219 221 222 222 221 222 222 224 225 227 227 228 228 228 229 231 233 234 235 237 238 240 241 242 243 242 241 241 241 242
305 308 311 317 313 324 327 331 332 322 310 307 290 258 252 255 246 252 259 259 269 257 253 267 273 275 277 253 233 235 230 220 211 218 226 242 260 252 241 211 214 214 216 218 220 221 223 223 222 221 220 221 223 225 227 228 228 228 229 231 232 234 234 235 236 238 240 242 242 242 242 242 242 241
301 304 313 315 318 331 333 339 333 325 327 324 318 316 308 296 280 257 253 259 269 272 242 250 258 262 269 271 238 227 227 220 216 219 228 237 251 262 252 238 213 216 216 217 218 220 222 223 223 221 219 219 221 223 225 226 227 228 229 230 231 232 233 234 235 236 238 240 241 241 240 240 240 240
304 311 305 307 313 334 331 342 334 336 334 333 326 324 319 315 309 305 294 280 266 271 274 257 254 259 251 260 250 251 234 231 221 214 225 225 226 242 252 241 227 211 215 216 217 220 221 223 223 222 220 219 220 221 223 225 226 227 228 228 229 231 232 234 234 235 236 237 237 238 239 239 239 240
308 297 298 305 316 333 333 335 332 331 334 335 328 320 317 307 304 301 293 287 282 275 273 265 261 255 257 255 260 250 248 238 210 220 219 221 215 223 239 243 236 206 210 213 216 218 220 222 222 221 221 220 220 220 221 222 224 224 224 225 228 229 231 232 233 234 234 234 235 236 236 235 236 237
296 291 289 300 315 329 320 321 313 323 339 335 320 309 310 308 304 303 300 291 280 275 273 266 255 258 256 256 253 254 246 243 234 208 214 209 210 218 225 231 225 215 209 212 213 215 217 219 219 219 219 219 218 219 219 220 221 221 221 222 224 226 227 229 230 232 232 232 232 233 233 234 235 236
282 278 283 294 299 304 299 303 303 314 329 331 316 305 305 305 303 303 306 305 296 285 273 275 263 259 257 256 257 255 254 247 242 238 234 221 212 213 217 230 226 223 207 211 212 214 215 216 218 217 217 216 216 217 217 218 218 218 219 220 221 222 224 226 228 229 230 231 231 231 232 234 235 235
277 278 280 281 282 275 292 291 291 305 313 316 308 306 299 298 299 300 302 303 305 298 282 271 272 256 254 253 249 247 252 256 248 240 239 245 250 261 262 241 226 220 197 198 212 217 220 222 221 219 218 216 215 214 215 216 217 217 217 217 217 220 223 225 227 227 228 229 229 229 230 232 233 234
285 281 281 281 262 257 266 284 295 297 298 300 303 297 297 294 299 302 301 303 303 298 292 279 264 265 256 253 258 246 235 242 247 238 231 254 249 228 224 248 246 226 210 208 206 203 205 213 215 221 220 218 215 214 213 214 215 215 215 214 216 219 222 225 226 227 226 227 227 227 228 229 230 231
284 287 284 280 277 263 275 287 286 279 282 285 285 289 290 292 297 300 303 305 302 296 294 282 280 269 265 256 249 254 247 247 245 207 206 230 224 222 223 223 230 220 213 207 214 212 211 216 217 218 219 220 217 215 213 214 213 213 212 213 216 219 223 224 225 226 227 227 226 226 227 227 229 230
291 288 289 284 289 290 273 266 258 250 245 258 275 284 285 290 297 298 300 297 295 295 288 285 277 272 265 253 253 247 239 232 232 217 207 232 229 228 230 234 232 225 216 214 213 210 198 207 209 206 213 221 217 217 213 216 215 214 211 212 215 220 221 222 224 226 227 227 227 227 227 227 226 226
289 293 360 310 309 285 266 270 268 254 245 236 239 264 281 291 293 294 297 295 295 292 290 288 284 275 267 259 244 245 239 234 228 226 214 223 227 225 241 264 236 221 223 219 215 213 199 200 206 201 213 219 202 210 198 212 209 212 212 213 216 219 221 221 222 224 226 226 226 226 226 226 225 224
301 304 270 247 270 297 288 279 267 262 269 266 255 249 252 258 273 294 292 286 290 290 288 290 283 276 273 266 256 251 250 240 231 221 219 224 217 212 213 234 240 220 212 219 218 213 200 196 207 207 212 211 198 205 209 209 210 207 205 211 215 218 218 220 220 221 222 223 224 224 223 223 224 224
297 297 298 294 285 279 291 288 294 291 291 289 280 272 265 268 267 260 260 279 293 289 288 287 286 285 280 277 266 256 248 246 240 224 216 218 216 216 215 220 224 208 199 213 215 219 199 198 210 217 216 213 210 208 212 206 205 209 207 209 214 217 217 217 218 220 219 219 221 222 222 221 222 224
293 296 295 294 287 287 279 281 285 289 295 298 302 300 300 292 283 280 269 252 253 274 276 279 281 280 282 274 266 259 250 246 254 234 221 217 219 218 222 221 223 212 190 200 212 222 207 196 209 219 219 216 215 214 211 210 204 206 210 213 215 217 217 217 217 218 218 217 218 220 220 219 220 221
301 301 303 297 294 295 298 288 284 290 301 311 313 317 314 307 303 300 289 288 280 272 271 273 277 279 278 278 280 268 262 250 243 247 229 214 218 217 222 224 228 228 182 197 204 227 215 199 208 218 219 215 221 222 210 206 208 207 210 215 218 219 216 216 216 216 216 215 216 217 217 217 217 219
276 287 285 292 292 292 288 278 278 296 314 315 313 311 308 305 302 301 307 306 302 297 293 290 288 285 280 277 277 276 261 250 243 240 246 232 223 219 224 271 277 336 267 225 212 228 215 196 209 221 219 212 225 223 220 200 203 206 209 213 218 219 216 212 209 209 210 212 212 212 213 214 215 218
274 267 268 277 283 283 282 284 279 348 344 314 317 311 302 304 303 302 295 286 286 290 295 290 280 283 278 272 269 270 278 284 265 251 263 276 236 239 197 218 229 230 197 188 213 242 230 194 207 220 215 216 224 222 226 208 202 205 208 212 214 214 211 205 203 203 203 205 207 209 209 211 215 217
264 252 233 224 252 267 283 277 300 28 8 325 311 303 296 299 301 305 310 304 301 299 294 286 280 273 267 262 258 256 255 251 257 255 227 234 209 237 219 225 224 227 190 178 194 229 236 200 204 215 209 210 221 221 218 217 202 206 209 210 208 203 198 196 194 195 196 199 203 204 205 208 211 212
278 295 299 291 284 280 275 307 16 25 360 313 306 300 298 297 303 310 315 316 311 305 292 286 284 283 275 264 254 246 241 242 239 233 229 210 189 221 214 214 213 221 209 202 193 212 224 205 199 205 201 203 223 229 228 216 201 204 207 203 193 187 186 186 186 186 190 195 198 200 201 203 194 185
298 297 299 296 296 304 329 18 14 4 325 287 284 292 291 300 308 312 317 312 310 311 313 312 311 312 307 293 255 229 228 228 223 225 226 208 193 221 224 211 198 234 230 212 189 211 220 215 209 197 178 211 229 218 161 115 159 171 165 159 173 181 178 178 179 181 188 193 196 199 197 188 171 184
299 296 297 303 34 56 73 22 343 323 300 266 276 278 293 305 309 313 313 306 305 308 314 316 317 316 314 319 294 222 212 210 208 212 219 214 203 210 224 217 204 205 219 206 183 209 214 205 217 201 196 186 213 191 202 205 139 163 155 150 163 158 161 162 175 186 189 193 195 196 189 178 178 185
295 294 303 314 306 137 6 356 346 330 317 294 278 278 294 303 298 304 303 307 311 316 318 318 321 321 326 324 325 297 222 197 192 202 215 216 212 210 209 211 219 226 216 215 183 202 211 199 213 204 214 191 135 108 173 201 158 176 182 170 154 136 143 147 146 159 197 199 196 193 187 183 190 201
290 299 300 298 295 304 348 353 332 324 321 319 310 293 303 306 309 311 302 307 317 320 324 328 327 330 331 333 326 325 307 233 203 203 207 214 219 213 212 210 213 221 211 195 177 199 208 237 215 201 188 154 139 115 127 247 159 173 157 117 116 139 151 155 168 164 163 174 169 184 191 193 198 210
293 288 286 283 300 322 342 345 318 315 318 316 316 318 326 329 318 311 319 322 325 328 331 332 337 334 335 334 330 321 319 305 244 212 206 206 209 216 217 214 214 221 220 209 183 189 168 169 267 242 189 165 150 129 156 202 195 161 194 178 162 152 172 173 177 167 167 171 176 168 175 189 208 215
281 283 286 308 315 307 359 322 296 288 290 329 329 335 347 336 318 319 326 332 331 331 332 339 337 338 337 334 334 328 314 295 286 245 217 206 206 207 213 213 212 213 217 169 157 163 171 176 167 332 255 148 155 170 164 195 182 219 228 191 176 167 177 182 175 164 166 168 146 153 166 163 192 191
265 300 311 304 301 301 330 239 259 258 330 353 322 324 355 350 330 331 338 336 338 338 340 338 337 335 337 332 325 327 323 301 259 257 233 220 211 207 204 211 209 205 208 167 173 174 166 156 149 178 197 98 139 146 134 174 171 195 193 211 202 168 179 184 175 163 167 164 161 172 182 174 170 185
292 297 299 298 295 299 196 223 259 314 15 314 302 346 357 348 343 348 345 347 343 343 341 341 337 334 331 334 333 332 351 358 317 233 219 217 217 209 200 199 209 206 199 172 142 133 129 124 135 147 147 148 143 146 146 144 186 187 176 201 244 187 195 181 171 162 160 162 169 175 181 180 168 173
335 317 309 297 292 287 276 202 236 249 277 275 332 352 3 5 3 356 351 340 343 345 342 337 332 331 330 327 342 355 359 360 360 331 228 209 211 213 212 196 199 198 174 155 142 146 132 111 109 113 154 189 135 147 159 172 183 203 196 178 177 205 187 178 167 163 164 159 158 165 167 181 166 175
316 307 297 294 286 297 90 157 215 215 219 298 356 358 10 15 360 355 348 2 357 352 338 330 328 329 338 347 350 353 359 7 6 2 332 217 202 206 170 179 200 193 168 141 125 150 142 126 151 188 190 168 164 160 169 176 194 202 172 142 187 236 184 179 167 156 152 146 150 168 182 176 163 177
307 295 297 295 347 10 33 29 16 9 24 4 351 1 9 13 6 2 9 359 348 343 339 341 340 339 342 346 352 350 1 8 6 4 0 352 296 185 153 217 174 169 164 156 155 71 116 131 151 156 145 104 88 147 166 172 209 165 190 173 193 199 189 163 158 149 146 148 155 164 173 165 170 169
276 284 299 350 23 359 34 21 15 6 10 4 357 358 6 10 10 3 355 352 348 342 346 342 344 346 344 353 352 356 359 2 9 6 6 8 9 10 178 192 184 180 177 154 152 165 137 118 103 89 84 79 63 52 95 179 166 164 189 179 171 212 201 145 154 158 159 163 156 158 172 171 176 180
263 305 10 26 21 8 16 24 12 3 7 6 3 357 356 4 6 1 356 347 337 349 349 349 354 347 354 351 354 356 357 2 11 5 4 12 22 24 40 52 39 43 56 77 128 145 137 129 127 122 116 111 94 80 60 45 195 188 142 242 205 182 189 179 157 159 160 163 155 161 170 178 182 187
329 15 32 28 25 17 15 16 13 9 6 2 2 354 352 359 3 356 4 340 335 343 352 356 354 356 355 354 355 356 355 359 13 12 7 13 20 5 31 51 46 55 55 43 25 18 100 136 149 148 150 156 143 144 75 43 52 221 164 180 180 168 168 164 155 148 156 175 174 168 168 176 178 177
31 18 29 30 24 19 19 11 13 13 7 0 358 355 355 356 358 355 356 338 344 344 355 353 357 356 359 355 353 357 2 2 5 13 14 9 14 6 19 41 43 51 56 47 40 35 35 50 40 24 178 159 168 161 130 204 47 38 136 147 158 126 129 139 138 136 117 107 89 85 149 156 165 163
47 32 25 32 23 22 18 17 9 15 9 2 359 353 357 355 357 345 356 350 355 349 355 2 350 354 2 1 357 357 359 2 3 9 14 7 5 17 23 33 38 44 47 45 44 45 35 37 40 47 26 247 173 143 139 73 11 10 7 204 160 149 157 144 143 139 122 113 105 90 89 90 72 348
42 41 31 30 32 26 25 20 20 18 12 2 1 360 354 359 357 351 358 355 350 351 359 357 356 349 355 3 1 2 2 1 3 5 2 5 8 15 15 21 35 41 42 41 36 32 32 31 29 28 47 27 2 106 126 119 66 39 37 31 54 161 178 155 138 120 135 129 100 82 88 107 109 78
39 40 43 35 38 36 34 27 24 17 13 6 360 353 356 0 4 358 1 355 350 351 359 358 350 348 355 360 1 3 6 8 2 360 358 358 5 13 15 19 31 34 41 39 36 30 29 26 20 16 31 47 23 9 24 94 107 61 51 37 15 4 119 142 114 146 142 135 131 128 128 135 96 70
47 35 36 36 27 38 39 29 17 11 13 8 3 356 355 1 8 4 1 358 353 355 357 358 357 357 353 353 357 2 8 5 360 354 356 355 6 12 13 12 26 27 43 45 44 35 30 15 4 12 32 49 59 23 16 51 57 40 53 47 21 29 46 46 81 71 54 130 140 134 130 132 130 102
29 59 41 33 27 15 27 28 13 10 7 13 10 3 355 3 8 3 1 5 358 358 359 358 358 357 358 353 353 351 15 10 2 359 355 1 5 9 13 14 12 15 31 41 41 54 23 9 357 356 19 44 50 51 37 32 52 43 40 58 66 34 54 58 60 62 60 32 52 103 96 93 100 91
5 27 47 34 32 21 15 19 20 13 3 7 15 5 9 3 1 6 6 3 357 360 360 359 353 357 355 353 356 357 350 8 14 2 1 5 5 10 10 7 5 9 14 19 28 34 47 25 2 4 16 41 49 59 57 42 35 41 40 40 40 39 56 63 67 64 57 51 45 45 59 117 118 99
23 25 40 34 30 25 16 10 15 21 8 5 13 8 16 6 2 7 9 4 360 355 355 355 353 353 351 350 355 357 360 353 13 9 6 1 1 6 12 8 4 2 6 8 11 15 5 26 21 18 32 39 36 54 56 45 41 29 40 41 34 28 31 27 44 58 52 41 32 43 50 64 75 85
4 27 43 44 33 27 20 15 9 30 21 10 17 16 13 11 6 4 6 6 0 353 351 353 354 353 351 351 357 358 356 347 360 11 6 10 10 5 10 16 9 4 4 357 3 11 8 9 4 10 31 21 24 39 52 61 49 41 41 47 50 39 22 10 35 41 42 45 15 25 39 48 63 73